TimeCST,TemperatureF,Dew PointF,Humidity,Sea Level PressureIn,VisibilityMPH,Wind Direction,Wind SpeedMPH,Gust SpeedMPH,PrecipitationIn,Events,Conditions,WindDirDegrees,DateUTC
12:15 AM,30.4,23.7,76,30.13,10.0,WNW,3.5,-,N/A,,Clear,300,2012-12-04 06:15:00
12:35 AM,32.4,25.7,76,30.12,10.0,Calm,Calm,-,N/A,,Clear,0,2012-12-04 06:35:00
12:55 AM,32.4,25.3,75,30.12,10.0,Calm,Calm,-,N/A,,Clear,0,2012-12-04 06:55:00
1:15 AM,30.0,22.3,73,30.12,10.0,Calm,Calm,-,N/A,,Clear,0,2012-12-04 07:15:00
1:35 AM,31.1,22.8,71,30.13,10.0,Calm,Calm,-,N/A,,Clear,0,2012-12-04 07:35:00
1:55 AM,31.5,23.7,73,30.14,10.0,Calm,Calm,-,N/A,,Clear,0,2012-12-04 07:55:00
2:15 AM,28.8,22.1,76,30.15,10.0,Calm,Calm,-,N/A,,Clear,0,2012-12-04 08:15:00
2:35 AM,30.2,21.2,69,30.15,10.0,WSW,3.5,-,N/A,,Clear,240,2012-12-04 08:35:00
2:55 AM,27.9,20.8,75,30.15,10.0,Calm,Calm,-,N/A,,Clear,0,2012-12-04 08:55:00
3:15 AM,27.7,20.7,75,30.16,10.0,West,4.6,-,N/A,,Clear,260,2012-12-04 09:15:00
3:35 AM,28.0,21.0,75,30.17,10.0,West,4.6,-,N/A,,Clear,260,2012-12-04 09:35:00
3:55 AM,28.4,21.2,74,30.17,10.0,Calm,Calm,-,N/A,,Clear,0,2012-12-04 09:55:00
4:15 AM,27.0,19.2,73,30.17,10.0,West,3.5,-,N/A,,Clear,280,2012-12-04 10:15:00
4:35 AM,27.7,19.8,72,30.17,10.0,West,3.5,-,N/A,,Clear,280,2012-12-04 10:35:00
4:55 AM,28.2,18.9,68,30.18,10.0,Calm,Calm,-,N/A,,Clear,0,2012-12-04 10:55:00
5:15 AM,29.3,19.9,68,30.19,10.0,West,3.5,-,N/A,,Clear,270,2012-12-04 11:15:00
5:35 AM,27.3,19.6,73,30.20,10.0,Calm,Calm,-,N/A,,Clear,0,2012-12-04 11:35:00
5:55 AM,29.1,19.6,68,30.21,10.0,Calm,Calm,-,N/A,,Clear,0,2012-12-04 11:55:00
6:15 AM,27.3,18.0,68,30.21,10.0,Calm,Calm,-,N/A,,Clear,0,2012-12-04 12:15:00
6:35 AM,27.1,18.9,71,30.22,10.0,Calm,Calm,-,N/A,,Clear,0,2012-12-04 12:35:00
6:55 AM,26.6,17.8,69,30.24,10.0,Calm,Calm,-,N/A,,Clear,0,2012-12-04 12:55:00
7:15 AM,25.5,18.0,73,30.25,10.0,West,3.5,-,N/A,,Clear,260,2012-12-04 13:15:00
7:35 AM,27.3,19.9,74,30.25,10.0,Calm,Calm,-,N/A,,Clear,0,2012-12-04 13:35:00
7:55 AM,26.6,19.9,76,30.25,10.0,Calm,Calm,-,N/A,,Clear,0,2012-12-04 13:55:00
8:15 AM,27.0,20.1,75,30.26,10.0,Calm,Calm,-,N/A,,Clear,0,2012-12-04 14:15:00
8:35 AM,30.7,21.9,70,30.26,10.0,Calm,Calm,-,N/A,,Clear,0,2012-12-04 14:35:00
8:55 AM,32.7,24.1,71,30.26,10.0,Calm,Calm,-,N/A,,Clear,0,2012-12-04 14:55:00
9:15 AM,36.3,23.5,60,30.27,10.0,West,5.8,-,N/A,,Clear,260,2012-12-04 15:15:00
9:35 AM,37.6,23.4,57,30.27,10.0,WSW,3.5,-,N/A,,Clear,240,2012-12-04 15:35:00
9:55 AM,40.1,23.9,52,30.28,10.0,West,4.6,-,N/A,,Clear,280,2012-12-04 15:55:00
10:15 AM,43.7,25.5,49,30.28,10.0,WNW,6.9,-,N/A,,Clear,290,2012-12-04 16:15:00
10:35 AM,46.6,23.4,40,30.28,10.0,WNW,6.9,-,N/A,,Clear,300,2012-12-04 16:35:00
10:55 AM,48.0,20.5,34,30.28,10.0,WNW,8.1,-,0.01,,Clear,290,2012-12-04 16:55:00
11:15 AM,49.6,19.2,30,30.28,10.0,West,10.4,-,N/A,,Clear,280,2012-12-04 17:15:00
11:35 AM,51.1,19.9,29,30.27,10.0,West,9.2,-,N/A,,Clear,280,2012-12-04 17:35:00
11:55 AM,53.6,19.4,26,30.26,10.0,West,8.1,-,N/A,,Clear,270,2012-12-04 17:55:00
12:15 PM,55.0,17.6,23,30.26,10.0,WNW,8.1,-,N/A,,Clear,290,2012-12-04 18:15:00
12:35 PM,56.5,16.2,21,30.25,10.0,West,8.1,-,N/A,,Clear,280,2012-12-04 18:35:00
12:55 PM,58.5,14.5,18,30.25,10.0,West,9.2,-,N/A,,Clear,270,2012-12-04 18:55:00
1:15 PM,59.0,13.8,17,30.25,10.0,West,10.4,-,N/A,,Clear,260,2012-12-04 19:15:00
1:35 PM,60.1,14.2,17,30.24,10.0,West,10.4,-,N/A,,Clear,260,2012-12-04 19:35:00
1:55 PM,60.6,13.8,16,30.24,10.0,WNW,9.2,-,N/A,,Clear,290,2012-12-04 19:55:00
2:15 PM,60.8,14.5,16,30.24,10.0,WNW,9.2,-,N/A,,Clear,300,2012-12-04 20:15:00
2:35 PM,60.8,14.2,16,30.23,10.0,WNW,3.5,-,N/A,,Clear,300,2012-12-04 20:35:00
2:55 PM,61.0,12.2,15,30.23,10.0,WNW,3.5,-,N/A,,Clear,300,2012-12-04 20:55:00
3:15 PM,61.0,12.7,15,30.24,10.0,NW,3.5,-,N/A,,Clear,310,2012-12-04 21:15:00
3:35 PM,60.8,12.0,15,30.24,10.0,NW,4.6,-,N/A,,Clear,310,2012-12-04 21:35:00
3:55 PM,60.3,12.4,15,30.24,10.0,Calm,Calm,-,N/A,,Clear,0,2012-12-04 21:55:00
4:15 PM,59.2,14.9,18,30.24,10.0,Calm,Calm,-,N/A,,Clear,0,2012-12-04 22:15:00
4:35 PM,57.7,15.1,19,30.24,10.0,Calm,Calm,-,N/A,,Clear,0,2012-12-04 22:35:00
4:55 PM,54.3,15.1,21,30.24,10.0,Calm,Calm,-,N/A,,Clear,0,2012-12-04 22:55:00
5:15 PM,48.7,14.9,26,30.25,10.0,Calm,Calm,-,N/A,,Clear,0,2012-12-04 23:15:00
5:35 PM,48.4,15.1,26,30.25,10.0,Calm,Calm,-,N/A,,Clear,0,2012-12-04 23:35:00
5:55 PM,46.9,15.6,29,30.25,10.0,Calm,Calm,-,N/A,,Clear,0,2012-12-04 23:55:00
6:15 PM,42.1,16.7,36,30.24,10.0,South,3.5,-,N/A,,Clear,180,2012-12-05 00:15:00
6:35 PM,42.4,16.5,35,30.25,10.0,Calm,Calm,-,N/A,,Clear,0,2012-12-05 00:35:00
6:55 PM,39.7,18.0,42,30.26,10.0,Calm,Calm,-,N/A,,Clear,0,2012-12-05 00:55:00
7:15 PM,39.0,19.2,45,30.26,10.0,Calm,Calm,-,N/A,,Clear,0,2012-12-05 01:15:00
7:35 PM,39.0,19.8,46,30.26,10.0,Calm,Calm,-,N/A,,Clear,0,2012-12-05 01:35:00
7:55 PM,37.4,20.1,50,30.27,10.0,Calm,Calm,-,N/A,,Clear,0,2012-12-05 01:55:00
8:15 PM,38.1,18.9,46,30.27,10.0,Calm,Calm,-,N/A,,Clear,0,2012-12-05 02:15:00
8:35 PM,35.6,18.7,50,30.26,10.0,East,3.5,-,N/A,,Clear,90,2012-12-05 02:35:00
8:55 PM,34.3,18.5,52,30.27,10.0,Calm,Calm,-,N/A,,Clear,0,2012-12-05 02:55:00
9:15 PM,35.4,18.7,51,30.26,10.0,Calm,Calm,-,N/A,,Clear,0,2012-12-05 03:15:00
9:35 PM,33.3,18.5,55,30.27,10.0,Calm,Calm,-,N/A,,Clear,0,2012-12-05 03:35:00
9:55 PM,33.4,19.4,56,30.27,10.0,Calm,Calm,-,N/A,,Clear,0,2012-12-05 03:55:00
10:15 PM,33.8,20.1,57,30.27,10.0,Calm,Calm,-,N/A,,Clear,0,2012-12-05 04:15:00
10:35 PM,33.4,19.2,56,30.27,10.0,Calm,Calm,-,N/A,,Clear,0,2012-12-05 04:35:00
10:55 PM,31.8,18.5,58,30.27,10.0,NE,3.5,-,N/A,,Clear,40,2012-12-05 04:55:00
11:15 PM,32.0,18.5,58,30.28,10.0,Calm,Calm,-,N/A,,Clear,0,2012-12-05 05:15:00
11:35 PM,32.0,18.7,58,30.28,10.0,NE,3.5,-,N/A,,Clear,50,2012-12-05 05:35:00
11:55 PM,31.6,19.4,61,30.29,10.0,East,3.5,-,N/A,,Clear,80,2012-12-05 05:55:00